Satellite: NOAA-14 Catalog number: 23455 Epoch time: 10119.38047801 Element set: 39 Inclination: 098.8784 deg RA of node: 200.4597 deg Eccentricity: 0.0009778 Arg of perigee: 019.6320 deg Mean anomaly: 340.5226 deg Mean motion: 14.13784644 rev/day Decay rate: 1.7e-07 rev/day^2 Epoch rev: 79060 Checksum: 307
Satellite: NOAA-15 Catalog number: 25338 Epoch time: 10119.20794469 Element set: 359 Inclination: 098.6154 deg RA of node: 107.0190 deg Eccentricity: 0.0009920 Arg of perigee: 213.4132 deg Mean anomaly: 146.6430 deg Mean motion: 14.24821733 rev/day Decay rate: 1.84e-06 rev/day^2 Epoch rev: 62177 Checksum: 289
Satellite: RESURS Catalog number: 25394 Epoch time: 10118.60732379 Element set: 489 Inclination: 098.3079 deg RA of node: 139.3802 deg Eccentricity: 0.0002079 Arg of perigee: 035.5618 deg Mean anomaly: 324.5707 deg Mean motion: 14.24199113 rev/day Decay rate: -1.5e-07 rev/day^2 Epoch rev: 61329 Checksum: 301
Satellite: FENGYUN1 Catalog number: 25730 Epoch time: 10119.84837518 Element set: 30 Inclination: 098.7846 deg RA of node: 086.0638 deg Eccentricity: 0.0025020 Arg of perigee: 045.1723 deg Mean anomaly: 315.1432 deg Mean motion: 14.08224248 rev/day Decay rate: 1.7e-07 rev/day^2 Epoch rev: 56488 Checksum: 284
Satellite: OKEAN-0 Catalog number: 25860 Epoch time: 10119.39209475 Element set: 978 Inclination: 097.8283 deg RA of node: 093.7604 deg Eccentricity: 0.0000596 Arg of perigee: 092.3205 deg Mean anomaly: 267.8068 deg Mean motion: 14.73634858 rev/day Decay rate: 9.5e-07 rev/day^2 Epoch rev: 57971 Checksum: 343
Satellite: NOAA-16 Catalog number: 26536 Epoch time: 10119.42273109 Element set: 836 Inclination: 099.1715 deg RA of node: 135.7386 deg Eccentricity: 0.0011348 Arg of perigee: 111.7840 deg Mean anomaly: 248.4526 deg Mean motion: 14.12554959 rev/day Decay rate: -2.01e-06 rev/day^2 Epoch rev: 49494 Checksum: 310
Satellite: NOAA-17 Catalog number: 27453 Epoch time: 10119.37837184 Element set: 840 Inclination: 098.4346 deg RA of node: 171.7762 deg Eccentricity: 0.0010737 Arg of perigee: 281.1411 deg Mean anomaly: 078.8567 deg Mean motion: 14.24153310 rev/day Decay rate: 2.22e-06 rev/day^2 Epoch rev: 40775 Checksum: 299
Satellite: NOAA-18 Catalog number: 28654 Epoch time: 10119.38403439 Element set: 324 Inclination: 098.9466 deg RA of node: 065.7968 deg Eccentricity: 0.0014032 Arg of perigee: 187.7163 deg Mean anomaly: 172.3787 deg Mean motion: 14.11351101 rev/day Decay rate: 6.9e-07 rev/day^2 Epoch rev: 25455 Checksum: 315
Satellite: NOAA-19 Catalog number: 33591 Epoch time: 10119.36147460 Element set: 522 Inclination: 098.7859 deg RA of node: 062.5277 deg Eccentricity: 0.0015189 Arg of perigee: 068.6763 deg Mean anomaly: 291.6037 deg Mean motion: 14.11046103 rev/day Decay rate: -1.77e-06 rev/day^2 Epoch rev: 6302 Checksum: 304
/EX SB KEPS @ AMSAT $ORB10119.M Orbital Elements 10119.MISC
HR AMSAT ORBITAL ELEMENTS FOR MANNED AND MISCELLANEOUS SATELLITES FROM WA5QGD FORT WORTH,TX April 29, 2010 Send Subscribe/unsubscribe to KEPS at http://www.amsat.org/mailman/listinfo/keps BID: ORB10119.M TO ALL RADIO AMATEURS BT
Satellite: HUBBLE Catalog number: 20580 Epoch time: 10119.57451948 Element set: 557 Inclination: 028.4692 deg RA of node: 197.2116 deg Eccentricity: 0.0003291 Arg of perigee: 049.1055 deg Mean anomaly: 310.9857 deg Mean motion: 15.00960945 rev/day Decay rate: 5.08e-06 rev/day^2 Epoch rev: 89744 Checksum: 310
Satellite: ISS Catalog number: 25544 Epoch time: 10119.78946759 Element set: 62 Inclination: 051.6447 deg RA of node: 118.9583 deg Eccentricity: 0.0009681 Arg of perigee: 254.0348 deg Mean anomaly: 111.3677 deg Mean motion: 15.73444830 rev/day Decay rate: 1.2045e-04 rev/day^2 Epoch rev: 65585 Checksum: 320
Satellite: CO-58 Catalog number: 28895 Epoch time: 10119.66148547 Element set: 570 Inclination: 098.0236 deg RA of node: 005.7296 deg Eccentricity: 0.0019113 Arg of perigee: 077.2560 deg Mean anomaly: 283.0816 deg Mean motion: 14.59881398 rev/day Decay rate: 1.61e-06 rev/day^2 Epoch rev: 23990 Checksum: 334
Satellite: FALCON Catalog number: 30776 Epoch time: 10119.87668917 Element set: 816 Inclination: 035.4345 deg RA of node: 337.5859 deg Eccentricity: 0.0000120 Arg of perigee: 355.6348 deg Mean anomaly: 004.4365 deg Mean motion: 15.03622112 rev/day Decay rate: 8.74e-06 rev/day^2 Epoch rev: 17278 Checksum: 301
Satellite: MAST Catalog number: 31126 Epoch time: 10119.00414963 Element set: 852 Inclination: 097.9425 deg RA of node: 163.5467 deg Eccentricity: 0.0095304 Arg of perigee: 019.7035 deg Mean anomaly: 340.7813 deg Mean motion: 14.53579819 rev/day Decay rate: 1.99e-06 rev/day^2 Epoch rev: 16091 Checksum: 304
Satellite: CAPE1 Catalog number: 31130 Epoch time: 10119.00817199 Element set: 872 Inclination: 097.9435 deg RA of node: 161.0586 deg Eccentricity: 0.0103348 Arg of perigee: 027.5821 deg Mean anomaly: 333.0804 deg Mean motion: 14.52169523 rev/day Decay rate: 4.49e-06 rev/day^2 Epoch rev: 16052 Checksum: 280
Satellite: COMPASS Catalog number: 32787 Epoch time: 10119.07909339 Element set: 657 Inclination: 097.8974 deg RA of node: 184.5029 deg Eccentricity: 0.0016993 Arg of perigee: 085.1464 deg Mean anomaly: 275.1715 deg Mean motion: 14.81842806 rev/day Decay rate: 5.35e-06 rev/day^2 Epoch rev: 10822 Checksum: 331
Satellite: AAUSAT2 Catalog number: 32788 Epoch time: 10118.68174876 Element set: 651 Inclination: 097.8992 deg RA of node: 184.2307 deg Eccentricity: 0.0017115 Arg of perigee: 087.6887 deg Mean anomaly: 272.6277 deg Mean motion: 14.81983713 rev/day Decay rate: 7.17e-06 rev/day^2 Epoch rev: 10817 Checksum: 347
Satellite: DO-64 Catalog number: 32789 Epoch time: 10118.69506174 Element set: 667 Inclination: 097.9043 deg RA of node: 184.6604 deg Eccentricity: 0.0016934 Arg of perigee: 087.1687 deg Mean anomaly: 273.1456 deg Mean motion: 14.82100957 rev/day Decay rate: 9.77e-06 rev/day^2 Epoch rev: 10817 Checksum: 343
Satellite: CO-66 Catalog number: 32791 Epoch time: 10119.63423782 Element set: 649 Inclination: 097.8996 deg RA of node: 185.0710 deg Eccentricity: 0.0017264 Arg of perigee: 081.7284 deg Mean anomaly: 278.5888 deg Mean motion: 14.81636413 rev/day Decay rate: 7.37e-06 rev/day^2 Epoch rev: 10826 Checksum: 347
Satellite: RS-30 Catalog number: 32953 Epoch time: 10119.75513246 Element set: 646 Inclination: 082.5012 deg RA of node: 059.7908 deg Eccentricity: 0.0017634 Arg of perigee: 205.3053 deg Mean anomaly: 154.7165 deg Mean motion: 12.43005069 rev/day Decay rate: 1.0e-07 rev/day^2 Epoch rev: 8772 Checksum: 276
Satellite: TACSAT-3 Catalog number: 35001 Epoch time: 10119.39617662 Element set: 274 Inclination: 040.4543 deg RA of node: 147.1068 deg Eccentricity: 0.0022125 Arg of perigee: 356.5303 deg Mean anomaly: 003.5352 deg Mean motion: 15.41340632 rev/day Decay rate: 4.401e-05 rev/day^2 Epoch rev: 5310 Checksum: 235
Satellite: PHARMSAT Catalog number: 35002 Epoch time: 10119.23770348 Element set: 259 Inclination: 040.4703 deg RA of node: 146.2380 deg Eccentricity: 0.0024651 Arg of perigee: 359.9945 deg Mean anomaly: 000.0863 deg Mean motion: 15.41909592 rev/day Decay rate: 4.194e-05 rev/day^2 Epoch rev: 5309 Checksum: 281
Satellite: HAWKSAT1 Catalog number: 35003 Epoch time: 10119.23865335 Element set: 276 Inclination: 040.4620 deg RA of node: 142.3723 deg Eccentricity: 0.0022014 Arg of perigee: 011.1038 deg Mean anomaly: 349.0263 deg Mean motion: 15.44541126 rev/day Decay rate: 8.667e-05 rev/day^2 Epoch rev: 5314 Checksum: 243
Satellite: CP6 Catalog number: 35004 Epoch time: 10119.19498446 Element set: 269 Inclination: 040.4600 deg RA of node: 142.0476 deg Eccentricity: 0.0021280 Arg of perigee: 012.4753 deg Mean anomaly: 347.6585 deg Mean motion: 15.45202223 rev/day Decay rate: 1.0202e-04 rev/day^2 Epoch rev: 5313 Checksum: 253
Satellite: AEROCUB3 Catalog number: 35005 Epoch time: 10119.19139136 Element set: 294 Inclination: 040.4741 deg RA of node: 141.4714 deg Eccentricity: 0.0017415 Arg of perigee: 020.1900 deg Mean anomaly: 339.9586 deg Mean motion: 15.48430985 rev/day Decay rate: 2.8147e-04 rev/day^2 Epoch rev: 5314 Checksum: 280
Satellite: DRAGNSAT Catalog number: 35690 Epoch time: 10076.22711312 Element set: 316 Inclination: 051.6170 deg RA of node: 315.4586 deg Eccentricity: 0.0004999 Arg of perigee: 310.9891 deg Mean anomaly: 057.3269 deg Mean motion: 16.42150010 rev/day Decay rate: 5.715194e-02 rev/day^2 Epoch rev: 3656 Checksum: 289
Satellite: POLLUX Catalog number: 35693 Epoch time: 10087.99866888 Element set: 352 Inclination: 051.6099 deg RA of node: 254.5746 deg Eccentricity: 0.0006270 Arg of perigee: 294.4866 deg Mean anomaly: 097.5899 deg Mean motion: 16.52338462 rev/day Decay rate: 2.3496735e-01 rev/day^2 Epoch rev: 3839 Checksum: 384
Satellite: CASTOR Catalog number: 35694 Epoch time: 10119.89673469 Element set: 329 Inclination: 051.6361 deg RA of node: 097.4095 deg Eccentricity: 0.0005339 Arg of perigee: 039.4492 deg Mean anomaly: 320.6938 deg Mean motion: 15.95407131 rev/day Decay rate: 6.1264e-04 rev/day^2 Epoch rev: 4333 Checksum: 318
Satellite: METEOR-M Catalog number: 35865 Epoch time: 10119.71857205 Element set: 249 Inclination: 098.7629 deg RA of node: 173.8542 deg Eccentricity: 0.0002702 Arg of perigee: 124.6839 deg Mean anomaly: 235.4546 deg Mean motion: 14.21829871 rev/day Decay rate: 1.76e-06 rev/day^2 Epoch rev: 3183 Checksum: 315
Satellite: RS-38 Catalog number: 35869 Epoch time: 10119.69524388 Element set: 254 Inclination: 098.7606 deg RA of node: 173.8580 deg Eccentricity: 0.0004988 Arg of perigee: 136.9294 deg Mean anomaly: 223.2232 deg Mean motion: 14.21980425 rev/day Decay rate: 1.77e-06 rev/day^2 Epoch rev: 3183 Checksum: 333
/EX
participants (1)
-
Ray Hoad